Location: Aix-en-Ergny
(50.5839°N, 1.9996°E)
Time: 07:47:35
(UTC+00:00)

Cosmos 2369 Rocket - Pass Details

Date: 23 October 2019
Orbit: 830 x 851 km, 71.0° (Epoch: 13 November)

Event Time Altitude Azimuth Distance (km) Brightness Sun altitude
Exits shadow 04:06:13 - 333° (NNW) 3,145 5.0 -23.0°
Reaches altitude 10° 04:08:08 10° 339° (NNW) 2,451 4.5 -22.7°
Maximum altitude 04:13:30 44° 51° (NE) 1,140 3.2 -21.8°
Drops below altitude 10° 04:18:49 10° 123° (ESE) 2,436 5.2 -21.0°
Sets 04:21:22 0° 130° (SE) 3,367 6.0 -20.6°
